Previsão horária em Abdul-Gazy

Hoje, 14 Abril, Quarta-feira

Tempo Temperatura Precipitação Vento Pressão Humidade
00:00 +10°C° 0 mm 3 m/s 759 mmHg 55%
01:00 +10°C° 0 mm 2 m/s 759 mmHg 58%
02:00 +9°C° 0 mm 2 m/s 758 mmHg 61%
03:00 +10°C° 0 mm 1 m/s 758 mmHg 63%
04:00 +10°C° 0 mm 1 m/s 758 mmHg 63%
05:00 +10°C° 0 mm 1 m/s 758 mmHg 63%
06:00 +10°C° 0 mm 2 m/s 758 mmHg 64%
07:00 +12°C° 0 mm 2 m/s 758 mmHg 60%
08:00 +13°C° 0 mm 3 m/s 758 mmHg 56%
09:00 +14°C° 0 mm 4 m/s 759 mmHg 52%
10:00 +15°C° 0 mm 4 m/s 758 mmHg 50%
11:00 +17°C° 0 mm 4 m/s 758 mmHg 48%
12:00 +18°C° 0 mm 4 m/s 758 mmHg 46%
13:00 +18°C° 0 mm 4 m/s 758 mmHg 48%
14:00 +18°C° 0 mm 4 m/s 758 mmHg 49%
15:00 +17°C° 0 mm 5 m/s 758 mmHg 50%
16:00 +16°C° 0.1 mm 5 m/s 758 mmHg 56%
17:00 +15°C° 0.1 mm 5 m/s 758 mmHg 62%
18:00 +14°C° 0.1 mm 6 m/s 758 mmHg 68%
19:00 +13°C° 0.2 mm 5 m/s 758 mmHg 71%
20:00 +13°C° 0.2 mm 5 m/s 758 mmHg 74%
21:00 +12°C° 0.2 mm 5 m/s 759 mmHg 76%
22:00 +12°C° 0.2 mm 5 m/s 759 mmHg 79%
23:00 +12°C° 0.2 mm 5 m/s 758 mmHg 81%

Amanhã, 15 Abril, Quinta-feira

Tempo Temperatura Precipitação Vento Pressão Humidade
00:00 +10°C° 0.2 mm 5 m/s 758 mmHg 83%
01:00 +11°C° 0 mm 4 m/s 758 mmHg 83%
02:00 +11°C° 0 mm 4 m/s 758 mmHg 83%
03:00 +11°C° 0 mm 4 m/s 758 mmHg 83%
04:00 +10°C° 0 mm 5 m/s 758 mmHg 83%
05:00 +9°C° 0 mm 5 m/s 758 mmHg 83%
06:00 +9°C° 0 mm 5 m/s 758 mmHg 83%
07:00 +10°C° 0 mm 5 m/s 759 mmHg 77%
08:00 +13°C° 0 mm 6 m/s 759 mmHg 71%
09:00 +14°C° 0 mm 6 m/s 759 mmHg 65%
10:00 +15°C° 0 mm 6 m/s 759 mmHg 57%
11:00 +17°C° 0 mm 6 m/s 758 mmHg 50%
12:00 +19°C° 0 mm 6 m/s 758 mmHg 42%
13:00 +20°C° 0 mm 6 m/s 758 mmHg 39%
14:00 +21°C° 0 mm 6 m/s 758 mmHg 35%
15:00 +21°C° 0 mm 6 m/s 758 mmHg 32%
16:00 +20°C° 0 mm 5 m/s 758 mmHg 37%
17:00 +19°C° 0 mm 4 m/s 758 mmHg 42%
18:00 +18°C° 0 mm 3 m/s 758 mmHg 46%
19:00 +17°C° 0 mm 3 m/s 758 mmHg 49%
20:00 +16°C° 0 mm 3 m/s 759 mmHg 51%
21:00 +14°C° 0 mm 3 m/s 759 mmHg 53%
22:00 +13°C° 0 mm 3 m/s 759 mmHg 55%
23:00 +13°C° 0 mm 3 m/s 759 mmHg 57%

Depois de amanhã, 16 Abril, Sexta-feira

Tempo Temperatura Precipitação Vento Pressão Humidade
00:00 +12°C° 0 mm 3 m/s 759 mmHg 59%
01:00 +12°C° 0 mm 3 m/s 759 mmHg 61%
02:00 +12°C° 0 mm 3 m/s 759 mmHg 63%
03:00 +12°C° 0 mm 2 m/s 759 mmHg 65%
04:00 +12°C° 0 mm 2 m/s 759 mmHg 67%
05:00 +12°C° 0 mm 2 m/s 759 mmHg 68%
06:00 +12°C° 0 mm 2 m/s 760 mmHg 70%
07:00 +14°C° 0 mm 1 m/s 760 mmHg 63%
08:00 +16°C° 0 mm 1 m/s 760 mmHg 56%
09:00 +19°C° 0 mm 1 m/s 760 mmHg 49%
10:00 +20°C° 0 mm 1 m/s 760 mmHg 45%
11:00 +22°C° 0 mm 1 m/s 760 mmHg 41%
12:00 +23°C° 0 mm 1 m/s 759 mmHg 37%
13:00 +23°C° 0 mm 2 m/s 759 mmHg 36%
14:00 +24°C° 0 mm 2 m/s 759 mmHg 35%
15:00 +24°C° 0 mm 2 m/s 758 mmHg 34%
16:00 +24°C° 0 mm 2 m/s 758 mmHg 37%
17:00 +23°C° 0 mm 2 m/s 758 mmHg 40%
18:00 +21°C° 0 mm 2 m/s 758 mmHg 43%
19:00 +20°C° 0 mm 2 m/s 759 mmHg 46%
20:00 +19°C° 0 mm 2 m/s 759 mmHg 50%
21:00 +17°C° 0 mm 3 m/s 760 mmHg 53%
22:00 +16°C° 0 mm 3 m/s 760 mmHg 63%
23:00 +14°C° 0 mm 3 m/s 760 mmHg 73%

17 Abril, Sábado

Tempo Temperatura Precipitação Vento Pressão Humidade
00:00 +12°C° 0 mm 4 m/s 760 mmHg 84%
01:00 +12°C° 0 mm 3 m/s 760 mmHg 87%
02:00 +11°C° 0 mm 3 m/s 760 mmHg 90%
03:00 +11°C° 0 mm 3 m/s 760 mmHg 93%
04:00 +11°C° 0 mm 3 m/s 760 mmHg 92%
05:00 +11°C° 0 mm 3 m/s 761 mmHg 91%
06:00 +11°C° 0 mm 3 m/s 761 mmHg 91%
07:00 +12°C° 0 mm 4 m/s 761 mmHg 85%
08:00 +13°C° 0 mm 5 m/s 762 mmHg 80%
09:00 +14°C° 0 mm 7 m/s 762 mmHg 75%
10:00 +14°C° 0.1 mm 7 m/s 762 mmHg 74%
11:00 +14°C° 0.1 mm 7 m/s 762 mmHg 73%
12:00 +14°C° 0.1 mm 7 m/s 762 mmHg 72%
13:00 +14°C° 0.1 mm 6 m/s 762 mmHg 67%
14:00 +15°C° 0.1 mm 5 m/s 762 mmHg 61%
15:00 +15°C° 0.1 mm 5 m/s 762 mmHg 55%
16:00 +14°C° 0 mm 4 m/s 763 mmHg 60%
17:00 +14°C° 0 mm 4 m/s 763 mmHg 65%
18:00 +13°C° 0 mm 3 m/s 763 mmHg 70%
19:00 +12°C° 0.2 mm 3 m/s 763 mmHg 74%
20:00 +12°C° 0.2 mm 3 m/s 763 mmHg 79%
21:00 +11°C° 0.2 mm 3 m/s 763 mmHg 83%
22:00 +12°C° 0 mm 2 m/s 763 mmHg 83%
23:00 +12°C° 0 mm 2 m/s 763 mmHg 84%

18 Abril, Domingo

Tempo Temperatura Precipitação Vento Pressão Humidade
00:00 +12°C° 0 mm 2 m/s 763 mmHg 85%
01:00 +12°C° 0 mm 2 m/s 762 mmHg 84%
02:00 +12°C° 0 mm 1 m/s 762 mmHg 84%
03:00 +11°C° 0 mm 1 m/s 762 mmHg 83%
04:00 +12°C° 0 mm 1 m/s 762 mmHg 82%
05:00 +11°C° 0 mm 0 m/s 762 mmHg 81%
06:00 +11°C° 0 mm 0 m/s 762 mmHg 80%
07:00 +12°C° 0 mm 0 m/s 762 mmHg 75%
08:00 +14°C° 0 mm 1 m/s 761 mmHg 71%
09:00 +15°C° 0 mm 1 m/s 761 mmHg 66%
10:00 +16°C° 0 mm 1 m/s 761 mmHg 63%
11:00 +16°C° 0 mm 2 m/s 760 mmHg 59%
12:00 +17°C° 0 mm 2 m/s 760 mmHg 56%
13:00 +17°C° 0.1 mm 3 m/s 760 mmHg 60%
14:00 +15°C° 0.1 mm 4 m/s 760 mmHg 65%
15:00 +15°C° 0.1 mm 5 m/s 759 mmHg 69%
16:00 +14°C° 0 mm 5 m/s 759 mmHg 71%
17:00 +13°C° 0 mm 5 m/s 759 mmHg 74%
18:00 +13°C° 0 mm 4 m/s 759 mmHg 77%
19:00 +12°C° 0.2 mm 5 m/s 760 mmHg 81%
20:00 +10°C° 0.2 mm 5 m/s 760 mmHg 85%
21:00 +10°C° 0.2 mm 5 m/s 760 mmHg 89%
22:00 +10°C° 0.9 mm 5 m/s 761 mmHg 90%
23:00 +10°C° 0.9 mm 4 m/s 761 mmHg 91%

19 Abril, Segunda-feira

Tempo Temperatura Precipitação Vento Pressão Humidade
00:00 +10°C° 0.9 mm 4 m/s 761 mmHg 92%
01:00 +10°C° 0.1 mm 4 m/s 761 mmHg 92%
02:00 +10°C° 0.1 mm 3 m/s 761 mmHg 92%
03:00 +10°C° 0.1 mm 3 m/s 761 mmHg 92%
04:00 +9°C° 0 mm 3 m/s 761 mmHg 92%
05:00 +9°C° 0 mm 3 m/s 762 mmHg 92%
06:00 +9°C° 0 mm 3 m/s 762 mmHg 92%
07:00 +10°C° 0 mm 3 m/s 762 mmHg 82%
08:00 +12°C° 0 mm 3 m/s 762 mmHg 72%
09:00 +14°C° 0 mm 4 m/s 762 mmHg 62%
10:00 +15°C° 0 mm 4 m/s 762 mmHg 55%
11:00 +17°C° 0 mm 4 m/s 762 mmHg 49%
12:00 +18°C° 0 mm 4 m/s 762 mmHg 43%
13:00 +19°C° 0 mm 4 m/s 761 mmHg 41%
14:00 +19°C° 0 mm 5 m/s 761 mmHg 40%
15:00 +19°C° 0 mm 5 m/s 761 mmHg 38%
16:00 +19°C° 0 mm 4 m/s 762 mmHg 42%
17:00 +18°C° 0 mm 4 m/s 762 mmHg 46%
18:00 +17°C° 0 mm 3 m/s 762 mmHg 50%
19:00 +14°C° 0 mm 4 m/s 762 mmHg 55%
20:00 +13°C° 0 mm 4 m/s 763 mmHg 61%
21:00 +10°C° 0 mm 5 m/s 763 mmHg 66%
22:00 +9°C° 0 mm 5 m/s 763 mmHg 67%
23:00 +9°C° 0 mm 5 m/s 764 mmHg 69%
Mostrar mais

Necessitamos do seu Consentimento

A Meteoprog e os seus Fornecedores de Serviços podem armazenar e aceder a dados pessoais como cookies, identificadores do dispositivo ou outras tecnologias semelhantes existentes no seu dispositivo e processar estes dados para personalizar conteúdos e anúncios, assim como funcionalidades nas redes sociais e análise de tráfego.

  • Armazenar e/ou aceder a informações no seu dispositivo

    Os cookies, identificadores do dispositivo ou outras informações podem ser armazenados ou acedidos no seu dispositivo, para os fins acima indicados.

  • Anúncios e conteúdos personalizados, medição de anúncios e conteúdos, dados sobre o público-alvo e desenvolvimento de produtos

    Os anúncios e os conteúdos podem ser personalizados com base num perfil. Podem ser adicionados dados adicionais para uma maior personalização dos anúncios e dos conteúdos. A eficácia dos anúncios e dos conteúdos pode ser medida. Podem ser obtidas informações sobre o público que visualizou os anúncios e os conteúdos. Estes dados podem ser usados para desenvolver ou melhorar sistemas, softwares ou a experiência do utilizador.

Ao clicar em "Eu concordo”, permitirá o uso de cookies, identificadores do dispositivo e web beacons mencionados ou outras tecnologias semelhantes. As configurações do navegador do seu dispositivo podem ser alteradas.

Para certos fins, podem ser invocados interesses legítimos ao invés de consentimento. Pode ler mais informação sobre este assunto na nossa Política de Privacidade e Cookies.